Zurück zum Katalog

FENGYUN 1C DEB *

AktivSSO
NORAD 46990·DEBRIS·🇨🇳 China

Gestartet May 10, 1999 von Taiyuan Satellite Launch Center

Loading…

Nächste Überflüge (nächste 24 Stunden)

TLE

VeraltetSource: Space-Track

Epoche: Sep 2, 2026, 19:36 UTC

1 46990U 99025EZQ 26245.81681813  .00006286  00000-0  12852-2 0  9990
2 46990  98.2185  80.5021 0330231 356.7249  14.9936 14.32077370123009

Verfolge FENGYUN 1C DEB * in Echtzeit mit AllMySat

Download on the App Store